Location: Aurora Center
(43.5271°N, 98.5894°W)
Time: 09:11:13
(UTC-05:00)

ACS3 Solar Sail - Pass Details

Date: 19 June 2024
Orbit: 992 x 1023 km, 97.4° (Epoch: 11 July)

Event Time Altitude Azimuth Distance (km) Brightness Sun altitude
Exits shadow 00:28:32 11° 224° (SW) 2,691 6.8 -21.3°
Maximum altitude 00:32:52 22° 271° (W) 2,051 6.6 -21.5°
Drops below altitude 10° 00:37:30 10° 319° (NW) 2,768 8.1 -21.7°
Sets 00:40:40 0° 335° (NNW) 3,719 9.3 -21.9°
